Fairbanks Eiels, AK

10:59 PM AKST on December 08, 2019 (GMT -0900)
Eielson Air Force Base

Weather History for PAEI - October, 2019

Change the Weather History Date:

Thursday, October 31, 2019

  Actual Average Record
Temperature  
Mean Temperature 18 °F -  
Max Temperature 23 °F 16 °F 52 °F (1970)
Min Temperature 12 °F 1 °F -36 °F (1975)
Degree Days  
Heating Degree Days 48    
Moisture  
Dew Point 14 °F    
Average Humidity 86    
Maximum Humidity 93    
Minimum Humidity 80    
Precipitation  
Precipitation 0.00 in - - ()
Sea Level Pressure  
Sea Level Pressure 30.15 in    
Wind  
Wind Speed 2 mph (North)    
Max Wind Speed 7 mph    
Max Gust Speed -    
Visibility 10 miles    
Events Fog    
Averages and records for this station are not official NWS values.
T = Trace of Precipitation, MM = Missing Value Source: NWS Daily Summary

Daily Weather History Graph

Daily Weather History Graph

Search for Another Location

Airport or City:

Astronomy

Oct. 31, 2019 Rise Set
Actual Time 9:31 AM AKDT 5:31 PM AKDT
Civil Twilight 8:37 AM AKDT 6:25 PM AKDT
Nautical Twilight 7:39 AM AKDT 7:23 PM AKDT
Astronomical Twilight 6:42 AM AKDT 8:19 PM AKDT
Moon 3:04 PM AKDT (10/31) 6:59 PM AKDT (10/31)
Length of Visible Light 9h 48m
Length of Day
7h 59m
Waxing Crescent, 17% of the Moon is Illuminated
Oct 31
Waxing Crescent
Nov 4
First Quarter
Nov 12
Full
Nov 19
Last Quarter
Nov 26
New

Hourly Weather History & Observations

Time (AKDT) Temp. Windchill Dew Point Humidity Pressure Visibility Wind Dir Wind Speed Gust Speed Precip Events Conditions
12:56 AM 16.5 °F 9.4 °F 13.3 °F 87% 30.23 in 10.0 mi SSE 4.6 mph - N/A   Mostly Cloudy
1:11 AM 15.8 °F - 12.2 °F 86% 30.23 in 10.0 mi Calm Calm - N/A   Scattered Clouds
1:56 AM 16.5 °F 9.4 °F 12.7 °F 85% 30.28 in 10.0 mi SE 4.6 mph - N/A   Mostly Cloudy
3:56 AM 15.6 °F - 12.2 °F 86% 30.28 in 10.0 mi Calm Calm - N/A   Clear
4:41 AM 12.2 °F - 8.6 °F 85% 30.27 in 10.0 mi Calm Calm - N/A   Scattered Clouds
4:56 AM 14.4 °F - 10.9 °F 86% 30.27 in 10.0 mi Calm Calm - N/A   Mostly Cloudy
5:56 AM 17.2 °F - 14.0 °F 87% 30.27 in 10.0 mi Calm Calm - N/A   Overcast
6:56 AM 19.9 °F - 16.9 °F 88% 30.25 in 10.0 mi Calm Calm - N/A   Overcast
7:41 AM 17.6 °F - 15.8 °F 93% 30.25 in 10.0 mi Calm Calm - N/A   Overcast
7:56 AM 17.6 °F - 14.4 °F 87% 30.25 in 10.0 mi Calm Calm - N/A   Overcast
8:56 AM 19.8 °F 14.7 °F 16.7 °F 88% 30.23 in 10.0 mi NNW 3.5 mph - N/A   Overcast
9:56 AM 18.3 °F 11.5 °F 14.7 °F 86% 30.21 in 10.0 mi North 4.6 mph - N/A   Scattered Clouds
10:56 AM 17.4 °F 8.0 °F 14.0 °F 86% 30.20 in 10.0 mi North 6.9 mph - N/A   Partly Cloudy
11:56 AM 19.8 °F - 15.4 °F 83% 30.19 in 10.0 mi Calm Calm - N/A   Partly Cloudy
12:56 PM 21.0 °F - 16.7 °F 83% 30.17 in 10.0 mi Calm Calm - N/A Fog Scattered Clouds
1:56 PM 23.0 °F 18.4 °F 17.8 °F 80% 30.16 in 10.0 mi North 3.5 mph - N/A   Partly Cloudy
2:56 PM 23.5 °F 17.6 °F 18.3 °F 80% 30.13 in 10.0 mi North 4.6 mph - N/A   Partly Cloudy
3:56 PM 23.0 °F - 17.8 °F 80% 30.10 in 10.0 mi Calm Calm - N/A   Partly Cloudy
4:56 PM 21.7 °F - 17.6 °F 84% 30.09 in 10.0 mi Calm Calm - N/A   Clear
5:56 PM 18.9 °F - 15.6 °F 87% 30.06 in 10.0 mi Calm Calm - N/A   Clear
6:56 PM 16.9 °F - 13.5 °F 86% 30.04 in 10.0 mi Calm Calm - N/A   Clear
7:56 PM 16.5 °F - 13.1 °F 86% 30.02 in 10.0 mi Calm Calm - N/A   Clear
8:03 PM 16.5 °F - 13.1 °F 86% 30.02 in 10.0 mi Calm Calm - N/A   Clear
8:56 PM 16.5 °F - 13.1 °F 86% 30.01 in 10.0 mi Calm Calm - N/A   Overcast
9:56 PM 15.8 °F - 12.2 °F 86% 29.96 in 10.0 mi Calm Calm - N/A   Overcast
10:56 PM 16.3 °F - 12.9 °F 86% 29.99 in 10.0 mi Calm Calm - N/A   Overcast
11:56 PM 17.6 °F 10.7 °F 14.0 °F 86% 29.93 in 10.0 mi North 4.6 mph - N/A   Overcast